Flight Information

DEPARTURE
FULLERTON, CA
Elevation:
96
Runways:
6/24 - 3121x75 - ASPH-G
H1 - 37x37 - CONC
Active PE Departure:
24
Current PE ATIS:
V
Altimeter:
29.98
Remarks:
ATIS:
125.05 714-870-6222
Ground:
121.8
Tower:
119.1
DESTINATION
,
Elevation:
TPA:
1000 (est.)


6775.3 NM74° True-14° Var59° HDG

Flight Plan:
(click to file on line)

1. Type
2. Aircraft Identification
3. Aircraft Type / Special Equipment
4. True Airspeed
kts
5. Departure Airport
(ICAO code)
6. Arriving Airport
(ICAO code)
7. Cruising Altitude
ft
8. Alternate Airport
(ICAO code)
9. Route of Flight
10. Remarks


00:00:00 Departure ATIS: Destination ATIS:

Clearance Limit:
Route:
Altitude: Expect in minutes
Frequency:
Transponder: (7500 Hijack / 7600 Lost Comms / 7700 Emergency)


KFUL 101653Z 00000KT 9SM CLR 26/17 A2998 RMK AO2 SLP152 T02560167
Time: 2020-07-10T16:53:00Z
1594400177
Winds: calm
Visibility: 9.0 sm
Clouds (AGL): CLR
Temperature: 25.6 C
Dew Point: 16.7 C
Pressure: 29.97933 in Hgbr


Notes:

Data extracted from FAA Digital Chart Supplement. Effective: 0901Z Thursday, May 21, 2020 to 0901Z Thursday, Jul 16, 2020
Current ATIS data is provided courtisy of PilotEdge.